Regional Weather Roundup
Issued by NWS Burlington, VT

Home | Current Version | Previous Version | Text Only | Print | Product List | Glossary On
Versions: 1 2 3 4 5 6 7 8 9 10 11 12 13 14 15 16 17 18 19 20 21 22 23 24 25 26 27 28 29 30 31 32 33 34 35 36 37 38 39 40 41 42 43 44 45 46 47 48 49 50
000
ASUS41 KBTV 280330
RWRBTV
VERMONT REGIONAL WEATHER ROUNDUP
NATIONAL WEATHER SERVICE BURLINGTON VT
1000 PM EST THU NOV 27 2014

NOTE: "FAIR" INDICATES FEW OR NO CLOUDS BELOW 12,000 FEET WITH NO
SIGNIFICANT WEATHER AND/OR OBSTRUCTIONS TO VISIBILITY.

* THESE REPORTS ARE NOT UNDER NWS QUALITY CONTROL AND/OR DO NOT
  REPORT WEATHER SUCH AS PRECIPITATION AND FOG.

VTZ001>019-280400-
_____VERMONT_____


CITY           SKY/WX    TMP DP  RH WIND       PRES   REMARKS
BURLINGTON     CLOUDY    27  18  69 CALM      30.05S
MONTPELIER     CLOUDY    23  19  85 CALM      30.04R
MORRISVILLE    CLOUDY    24  19  81 CALM      30.04S
ST. JOHNSBURY*   N/A     26  20  77 MISG      30.01R
LYNDONVILLE*   MIX PCPN  24  19  83 CALM      30.01R
MIDDLEBURY*    CLOUDY    28  21  76 CALM      30.02F
RUTLAND*       CLOUDY    25  21  86 CALM      30.01S
HIGHGATE*      CLOUDY    24  22  90 CALM      30.06S
NEWPORT*       CLOUDY    23  18  83 CALM      30.02S
BENNINGTON     LGT SNOW  27  24  89 SW3       30.01R FOG
SUTTON*          N/A     21 N/A N/A MISG        N/A
GALLUP MILLS*    N/A     21 N/A N/A MISG        N/A
UNION VILLAGE*   N/A     27 N/A N/A MISG        N/A

_____LAKE CHAMPLAIN_____


CITY           SKY/WX    TMP DP  RH WIND       PRES   REMARKS
BURTON ISLAND*   N/A     32  23  69 E3          N/A
COLCHESTER RF*   N/A     32  21  64 NE7         N/A
DIAMOND ISL*     N/A     30  21  69 NE13        N/A

$$

NYZ007-026>031-035-052-083-280400-
_____NORTHERN NEW YORK_____


CITY           SKY/WX    TMP DP  RH WIND       PRES   REMARKS
PLATTSBURGH    CLOUDY    27  23  85 W3        30.05S
SARANAC LAKE   LGT SNOW  22  19  89 CALM      29.95S FOG
MASSENA        CLOUDY    27  17  66 W7        30.07S
OGDENSBURG*    FLURRIES  27  21  80 CALM      30.07S
POTSDAM*       LGT SNOW  25  21  86 N6        30.05S
STARK FALLS*     N/A     23 N/A N/A W2          N/A
WATERTOWN      CLOUDY    28  23  81 W3        30.07R
FT DRUM        CLOUDY    25  25 100 NW2       30.04R
ALBANY         LGT SNOW  29  26  89 N3        30.06R FOG
GLENS FALLS    LGT SNOW  28  24  85 NE5       30.05S FOG

$$
NHZ002-005-011-280400-
_____NEW HAMPSHIRE_____


CITY           SKY/WX    TMP DP  RH WIND       PRES   REMARKS
LEBANON        CLOUDY    28  22  78 NE5       30.02R
KEENE            N/A    N/A N/A N/A MISG        N/A
MT WASHINGTON  FOG        9   9 100 SE16        N/A  VSB 1/16WCI  -9
PLYMOUTH       CLOUDY    28  25  89 W6        30.01S
WHITEFIELD     CLOUDY    24  20  84 CALM      29.99S

$$

_____REGIONAL QUEBEC LOCATIONS_____


CITY           SKY/WX    TMP DP  RH WIND       PRES   REMARKS
MONTREAL       CLOUDY    27  18  69 SW2       30.06R
QUEBEC CITY    MOCLDY    23  16  74 VRB2      30.03R
SHERBROOKE     MOCLDY    23  21  93 SW2       30.01R

_____REGIONAL ONTARIO LOCATIONS_____


CITY           SKY/WX    TMP DP  RH WIND       PRES   REMARKS
OTTAWA         CLOUDY    25  16  68 W7        30.05F

______KEY______
VSB  - VISIBILITY IN MILES
WCI  - WIND CHILL INDEX
HX   - HEAT INDEX
$$
NNNN



USA.gov is the U.S. government's official web portal to all federal, state and local government web resources and services.